星链-3448 (STARLINK-3448 )

导读 | 星芒AI

STARLINK-3448 是 SpaceX Starlink 项目中的一颗低轨通信卫星,属于第三代星链卫星(也称为 v1.5 或 Block V)。该卫星于 2023 年发射,旨在为全球提供高速互联网服务。它运行在约 550 公里的轨道高度,采用先进的推进系统和激光通信技术,以提高网络性能和减少延迟。STARLINK-3448 与其他星链卫星协同工作,增强覆盖范围和连接稳定性,特别是在偏远和农村地区。

基本信息
目录编号:
51728
目录名称:
STARLINK-3448
国际标识:
2022-016Q
轨道中心:
EARTH
卫星名称:
星链-3448
卫星全名:
星链-3448 (STARLINK-3448 )
卫星状态:
已陨落 最后检测时间 2025-04-16
发射日期:
2022-02-21 UTC
国别 :
美国 (US)
星等 :
--
轨道信息
数据来源 国际轨道数据
星历时间: 2025-04-17T03:38:48+0800
轨道信息已过期247天
半长轴: 6622.773km
偏心率: 0.0235087
轨道倾角: 53.646°
近地点辐角 109.656°
升交点赤经 308.146°
平近点角 79.079°
近地点: 88.945km
远地点: 400.331km
周期: 89.396分钟
每日圈数: 16.108051
详细信息
固有亮度:
5
最大亮度:
2.5
卫星平台:
Starlink v1.5
覆盖范围:
全球
运营商:
太空探索技术公司
运营商所在国:
美国
制造商(研发单位):
太空探索技术公司
制造商所在国:
美国
使用方式:
暂无
卫星简介
星链(Starlink)计划是由太空探索技术公司(SpaceX)提出的一个巨型低轨卫星互联网星座项目,计划在2019年至2024年间在太空搭建由约1.2万颗卫星组成的“星链”网络,其中1584颗将部署在地球上空550千米处的近地轨道,并从2020年开始工作。该卫星仍在工作。